User: anonymous   Login
Location: Unspecified
(0.0000°N, 0.0000°E)
Time: 18:45:05
(UTC+00:00)
Language:

FALCONSAT 3 - Orbit

View from above orbital plane
View from above orbital plane
View from above satellite
View from above satellite

Ground track
Ground track

The orbit data is extracted from the following two-line orbital elements,

1 30776U 07006E   17145.61889683 +.00002422 +00000-0 +77808-4 0  9997
2 30776 035.4354 209.7807 0002261 134.2681 225.8230 15.32141846564796
Epoch (UTC): 25 May 2017 14:51:12
Eccentricity: 0.0002261
inclination: 35.4354°
perigee height: 468 km
apogee height: 471 km
right ascension of ascending node: 209.7807°
argument of perigee: 134.2681°
revolutions per day: 15.32141846
mean anomaly at epoch: 225.8230°
orbit number at epoch: 56479

The dashed part of the orbit path shows where the satellite is in the earth's shadow,  

DLR